Powrót do katalogu

TITAN 4B DEB

AktywnyLEO
NORAD 27469·DEBRIS·🇺🇸 United States

Wystrzelony Aug 17, 2000 z Vandenberg Space Force Base

Loading…

Następne Przeloty (najbliższe 24 godziny)

TLE

ŚwieżeSource: Space-Track

Epoka: Sep 13, 2026, 21:47 UTC

1 27469U 00047C   26256.90790917  .00000157  00000-0  26625-4 0  9990
2 27469  67.9944  81.7716 0066603 272.0969  87.2545 14.91880420312964

Śledź TITAN 4B DEB w czasie rzeczywistym z AllMySat

Download on the App Store